OpenBCM V1.13 (Linux)

Packet Radio Mailbox

DB0FHN

[JN59NK Nuernberg]

 Login: GUEST





  
I0OJJ  > KEPS     08.02.26 02:33l 317 Lines 15172 Bytes #999 (0) @ AMSAT
BID : ORB26039.1
Read: OE5RCO DJ6UX GUEST
Subj: 2Line Orbital Elements 26039.AMSAT
Path: DB0FHN<DB0RKB<DK0WUE<PD0LPM<PI8ZTM<CX2SA<EA2RCF<I0OJJ
Sent: 260208/0021z @:I0OJJ.ITA.EU [Rome] obcm1.13-38-g65b7
From: I0OJJ @ I0OJJ.ITA.EU (Gustavo)
To:   KEPS @ AMSAT
X-Info: This message was generated automatically


QST de W1STR

AMSAT Orbital Elements for Amateur Satellites in TLE Format
From Orbital Analysis Office
New England Sci-Tech STEM Education Center
Natick MA February 08, 2026
To all radio amateurs


These element sets describe the orbits of various satellites 
in use by the amateur radio community. For details see:
www.amsat.org/keplerian-elements-formats/

A daily update of element sets is available at:
www.amsat.org/tle/daily-bulletin.txt
or without bulletin text:
www.amsat.org/tle/dailytle.txt


AO-07
1 07530U 74089B   26038.64234134 -.00000043  00000-0  21384-4 0  9999
2 07530 101.9972  50.5097 0012255  19.7474  92.3891 12.53695635344287
UO-11
1 14781U 84021B   26038.86552006  .00002365  00000-0  24847-3 0  9991
2 14781  97.7900   6.0428 0006065 247.9195 112.1379 14.90394981237867
AO-27
1 22825U 93061C   26038.77890984  .00000158  00000-0  77323-4 0  9999
2 22825  98.7047 106.1565 0009371 117.4906 242.7230 14.30902855688490
FO-29
1 24278U 96046B   26038.63012359 -.00000019  00000-0  13884-4 0  9995
2 24278  98.5420 265.1103 0350823  72.6281 291.2904 13.53266641455646
GO-32
1 25397U 98043D   26038.81599578  .00000133  00000-0  77556-4 0  9992
2 25397  98.9989  28.3656 0000827 176.3926 183.7258 14.24397444432916
ISS
1 25544U 98067A   26038.50283896  .00012054  00000-0  23050-3 0  9995
2 25544  51.6315 221.5822 0011000  74.6214 285.5989 15.48462076551652
NO-44
1 26931U 01043C   26038.80312729  .00000244  00000-0  12210-3 0  9999
2 26931  67.0487 218.9043 0007047 266.3631  93.6665 14.31894725271927
SO-50
1 27607U 02058C   26038.80576703  .00002433  00000-0  30505-3 0  9990
2 27607  64.5529 169.1848 0074412 286.1024  73.1898 14.82662812245279
CO-55
1 27844U 03031E   26038.56616307  .00000458  00000-0  21748-3 0  9997
2 27844  98.6776  48.7414 0009269 195.8360 164.2530 14.24240336173221
CO-57
1 27848U 03031J   26038.56044063  .00000385  00000-0  18850-3 0  9994
2 27848  98.6805  48.5526 0008827 214.8249 145.2352 14.23539329172937
RS-22
1 27939U 03042A   26038.84553742  .00002017  00000-0  32091-3 0  9994
2 27939  98.3403 219.5827 0010705 324.0540 146.9715 14.73167989196503
CO-58
1 28895U 05043F   26038.81164722  .00002702  00000-0  43642-3 0  9997
2 28895  98.2780 191.8841 0013248 254.8589 105.1153 14.72183977 82712
CO-65
1 32785U 08021C   26038.85674052  .00008166  00000-0  53509-3 0  9998
2 32785  97.8167  17.8161 0011306 105.2031 255.0448 15.07930676965699
CO-66
1 32791U 08021J   26038.47729072  .00027436  00000-0  10123-2 0  9991
2 32791  97.7496  30.6920 0005287  67.2605 292.9192 15.27738245967453
RS-30
1 32953U 08025A   26038.85031603  .00000016  00000-0  41930-4 0  9990
2 32953  82.4988  75.8958 0018547 231.4011 128.5408 12.43174828803629
SRMSAT
1 37841U 11058D   26038.65726960  .00000503  00000-0  12903-3 0  9994
2 37841  19.9714 123.4696 0011542 218.7499 267.1641 14.11536363739492
ZACUBE-1
1 39417U 13066B   26038.84774822  .00009205  00000-0  73273-3 0  9992
2 39417  97.8175   0.5306 0040809 323.1093  36.7324 14.99956953661333
Delfi-N3xt
1 39428U 13066N   26038.79733134  .00012279  00000-0  11174-2 0  9995
2 39428  97.8350 319.4134 0075359 277.3495  81.9165 14.93161189655303
GOMX-1
1 39430U 13066Q   26038.85501127  .00003105  00000-0  47268-3 0  9992
2 39430  97.6578 247.4188 0130540 132.4124 228.8215 14.68969320650925
LO-74
1 39440U 13066AA  26038.80174382  .00006792  00000-0  64220-3 0  9999
2 39440  97.8775 347.4472 0060865  96.0027 264.8132 14.92594260657685
AO-73
1 39444U 13066AE  26038.83996921  .00013350  00000-0  87457-3 0  9992
2 39444  97.8151   7.8970 0035712 284.6813  75.0456 15.07318599660162
DTUSAT-2
1 40030U 14033W   26038.83688905  .00012714  00000-0  72423-3 0  9990
2 40030  98.0820  28.5882 0006981 329.0949  30.9868 15.12948079633113
EO-80
1 40032U 14033Y   26038.51277343  .00013606  00000-0  77216-3 0  9993
2 40032  98.0706  27.5610 0005756 253.9814 106.0782 15.13068731633042
LILACSAT-2
1 40908U 15049K   26038.89805498  .00021484  00000-0  42791-3 0  9995
2 40908  97.4855  71.1078 0007784  16.7291 343.4214 15.46895030575736
Horyu-4
1 41340U 16012D   26038.78452521  .00087695  00000-0  11172-2 0  9994
2 41340  30.9913 276.3506 0001762  80.5256 279.5594 15.57935039550435
Lapan A3
1 41603U 16040E   26038.85345242  .00004921  00000-0  16078-3 0  9998
2 41603  97.1465  39.3635 0012305 115.1275 245.1245 15.32110726535004
CAS-2T
1 41847U 16066G   26038.78082602  .00002478  00000-0  35550-3 0  9997
2 41847  98.3941 115.9531 0343425 161.9358 199.4398 14.44361493486111
TechnoSat
1 42829U 17042E   26038.82436029  .00005021  00000-0  36637-3 0  9998
2 42829  97.4097 201.6095 0018136 170.7360 189.4205 15.03996175467258
AO-91
1 43017U 17073E   26038.58685824  .00012409  00000-0  56482-3 0  9992
2 43017  97.4897 268.5252 0158767  55.5478 306.0637 15.10188754445816
S-Net D
1 43186U 18014G   26038.69662983  .00007811  00000-0  41868-3 0  9991
2 43186  97.5459 304.3554 0010201 103.5028 256.7342 15.15217497439142
S-Net B
1 43187U 18014H   26038.77168704  .00007321  00000-0  39287-3 0  9991
2 43187  97.5464 304.4123 0010975  99.7689 260.4783 15.15191535439155
S-Net A
1 43188U 18014J   26038.69610414  .00007881  00000-0  42227-3 0  9992
2 43188  97.5473 304.5229 0010790 100.3827 259.8622 15.15223455439142
S-Net C
1 43189U 18014K   26038.70884714  .00007386  00000-0  39626-3 0  9990
2 43189  97.5491 304.5901 0012337  94.3896 265.8746 15.15183086437694
Ten-Koh
1 43677U 18084G   26038.60369298  .00004781  00000-0  36722-3 0  9993
2 43677  98.0731 225.5381 0009360 192.4952 167.6041 15.02235627396706
PO-101
1 43678U 18084H   26038.83473609  .00002094  00000-0  17434-3 0  9995
2 43678  98.1069 229.6448 0008618 220.0321 140.0267 14.99813934396820
QO-100
1 43700U 18090A   26038.77206422  .00000149  00000-0  00000+0 0  9994
2 43700   0.0162 116.1105 0002381 248.6282  76.8291  1.00271715 26371
MinXSS-2
1 43758U 18099A   26038.81265629  .00039831  00000-0  10516-2 0  9991
2 43758  97.4686 112.0710 0008710  18.4496 341.7063 15.38311588394181
AO-95
1 43770U 18099N   26038.70242148  .00016564  00000-0  69323-3 0  9993
2 43770  97.4570  99.5983 0010601  85.5671 274.6777 15.23590780393485
SNUSat 2
1 43782U 18099AA  26038.71062874  .00012326  00000-0  58121-3 0  9999
2 43782  97.4259  94.1632 0011438  35.7283 324.4715 15.19568338393350
SnugLite
1 43784U 18099AC  26038.67464642  .00016021  00000-0  66345-3 0  9998
2 43784  97.4067  94.3930 0003755  48.3959 311.7599 15.23997524393576
ITASat 1
1 43786U 18099AE  26038.70422370  .00010639  00000-0  53745-3 0  9995
2 43786  97.4228  92.8416 0014510  85.2842 275.0048 15.17165803393268
EAGLET 1
1 43790U 18099AJ  26038.64022001  .00005755  00000-0  34013-3 0  9990
2 43790  97.4427  91.7129 0012821  75.6205 284.6448 15.11798723392752
ESEO
1 43792U 18099AL  26038.64662145  .00002626  00000-0  19504-3 0  9993
2 43792  97.4174  81.4954 0013667  60.5343 299.7245 15.03789943392331
JO-97
1 43803U 18099AX  26038.72644512  .00023353  00000-0  82600-3 0  9990
2 43803  97.4318 101.4188 0006321  22.2814 337.8699 15.29149335393817
Suomi 100
1 43804U 18099AY  26038.70692354  .00017462  00000-0  69783-3 0  9997
2 43804  97.4383  99.7644 0010971  24.6897 335.4864 15.25130008393663
ISAT
1 43879U 18111D   26038.75317607  .00067818  00000-0  13099-2 0  9992
2 43879  97.5898 325.9644 0008678  66.1565 294.0594 15.47523703391047
UWE-4
1 43880U 18111E   26038.82952102  .00037922  00000-0  10117-2 0  9998
2 43880  97.5856 322.0843 0011890  73.9806 286.2747 15.37969319390842
Sparrow
1 43881U 18111F   26038.77028589  .00077202  00000-0  13382-2 0  9998
2 43881  97.6104 330.1209 0008116  91.3628 268.8553 15.50590116391188
Prox-1
1 44339U 19036A   26037.03795150  .00021208  00000-0  22764-2 0  9996
2 44339  23.9950 268.0259 0007003 320.3333  39.6653 14.87023021353902
Taurus 1
1 44530U 19059C   26038.82347596  .00011901  00000-0  19762-2 0  9992
2 44530  98.6264 195.8853 0008282 356.7030   3.4118 14.70299530339626
TO-108
1 44881U 19093C   26038.86188102  .00000818  00000-0  98971-4 0  9995
2 44881  97.7666 114.1977 0014212 147.2940 212.9159 14.86269611332208
FloripaSat 1
1 44885U 19093G   26038.81406351  .00008122  00000-0  61959-3 0  9994
2 44885  97.7886 132.2726 0011881 145.1894 215.0110 15.02224599333211
RS-44
1 44909U 19096E   26038.53921719  .00000012  00000-0 -53377-5 0  9991
2 44909  82.5173  65.8594 0218675  87.5471 275.0644 12.79746901285764
SALSAT
1 46495U 20068K   26038.54628894  .00012326  00000-0  45936-3 0  9993
2 46495  97.8838  33.9491 0011584  45.2327 314.9851 15.27544545295553
CSS (TIANHE-1)
1 48274U 21035A   26038.37011297  .00025203  00000-0  31398-3 0  9994
2 48274  41.4682  32.4562 0005155  20.8908 339.2140 15.59318584272874
CUTE
1 49263U 21088D   26038.82525584  .00040439  00000-0  42718-3 0  9996
2 49263  97.4261 129.4185 0004447  66.5991 293.5735 15.64090830242200
TeikyoSat 4
1 49396U 21102B   26038.63727619  .00003466  00000-0  22289-3 0  9992
2 49396  97.3839  73.0916 0012811  25.9994 334.1876 15.08968789233189
Z-Sat
1 49399U 21102E   26038.84313810  .00004563  00000-0  23276-3 0  9998
2 49399  97.3508  78.0713 0016614 344.2219  15.8495 15.17108282233822
KOSEN 1
1 49402U 21102H   26038.75473206  .00010788  00000-0  43692-3 0  9999
2 49402  97.3386  83.4767 0012909 309.0252  50.9836 15.24770436234283
HO-113
1 50466U 21131B   26038.85940303  .00000907  00000-0  29469-3 0  9999
2 50466  98.4989 131.9825 0005098 120.4805 239.6888 14.41211033216486
SNUGLITE 2
1 52899U 22065F   26038.80590778  .00001748  00000-0  34225-3 0  9990
2 52899  98.1977 184.0405 0008519  73.5016 286.7122 14.64044016192069
